STARLINK-1042, 44747

Orbit data source: Space-Track

STARLINK-1042, 44747 is a payload satellite owned by SpaceX/Seattle (US) in LEO that was launched on Mon, 11 Nov 2019 UTC via an FALCON 9 launch vehicle from the Air Force Eastern Test Range (AFETR). Payload-class satellites include a variety of spacecraft equipped with specific instruments for various scientific and technological missions. These include communications satellites like Starlink; space stations such as the ISS; scientific satellites like the Hubble; Earth observation satellites from companies like Planet Labs, Umbra, and HawkEye 360; GPS; miniature CubeSats for education and research; and military/defense satellites.

Loading next visibility...
Identifier
44747, 2019-074AL
Orbit
LEO
Country
Flag of USUS
Related business
Manufacturer
SpaceX/Seattle
Mission
Partially operational Commercial Communications
Bus & Motor
STARLINK, Unknown motor
Mass
260 kg wet, ~248 kg dry
Launch date (UTC)
2019-11-11 (6 years ago)
Launch vehicle
FALCON 9
Launch site
Air Force Eastern Test Range (AFETR)
Object type
Payload
Rocket body
Debris
Shape & HBR
Box + 1 Pan, 4.4 m
Radar Cross Section
13.562 m², Large (>1 m²)

Expand to show TLE details & history
Last TLE update: 16 hours ago

TLE from 16 hours ago
0 STARLINK-1042
1 44747U 19074AL  25259.15331590  .00018066  00000-0  44429-3 0  9994
2 44747  53.0456 206.4134 0003238  23.5591 336.5561 15.40714286323085
Epoch: 2025-09-16T03:40Z
TLE epoch observation values (Epoch: 2025-09-16T03:40:46.493Z)
Latitude
-0°
Longitude
155.87197°
Altitude
442.865 km
Speed
7.649 km/s
True Right ascension
13h 45m 39s
True Declination
0° 00' 00"
Sunlit
Object was in daylight at epoch
Visualization orbit readout
Latitude
Unknown
Longitude
Unknown
Altitude
Unknown
Speed
Unknown
Apparent Right ascension
Unknown
Apparent Declination
Unknown
Sunlit
N/A
Visualization observer readout
Local Sidereal Time
12:25:21
Azimuth
Unknown
Elevation
Unknown
Doppler factor
Unknown
Orbital elements
Apogee altitude
446.485 km
Perigee altitude
442.067 km
Semi-major axis
6,822.413 km
Eccentricity
0.00032
Inclination
53.0456°
RAAN
206.4134°
Arg. of periapsis
23.5591°
True anomaly
336.54133°
Mean anomaly
336.5561°
Eccentric anomaly
336.54872°
Mean motion
3.85156 °/min
Orbital period
93.47 mins
BSTAR
0.00044429
Loading maneuver chart data...
Computing Atmospheric mass density...

Documentation

Showing up to 5 results
|